Regional Weather Roundup
Issued by NWS

Home | Current Version | Previous Version | Text Only | Print | Product List | Glossary Off
Versions: 1 2 3 4 5 6 7 8 9 10 11 12 13 14 15 16 17 18 19 20 21 22 23 24 25 26 27 28 29 30 31 32 33 34 35 36 37 38 39 40 41 42 43 44 45 46 47 48 49 50

000
ASUS43 KFSD 050810
RWRSD

WEATHER ROUNDUP FOR SOUTH DAKOTA
NATIONAL WEATHER SERVICE SIOUX FALLS SD
200 AM CST THU MAR 05 2015

NOTE: "FAIR" INDICATES FEW OR NO CLOUDS BELOW 12,000 FEET WITH NO
SIGNIFICANT WEATHER AND/OR OBSTRUCTIONS TO VISIBILITY.


SDZ001>005-009-010-012>017-050900-
NORTHWEST AND NORTH CENTRAL SOUTH DAKOTA

CITY           SKY/WX    TMP DP  RH WIND       PRES   REMARKS
BUFFALO          N/A      4  -5  66 S10       30.07F WCI -11
FAITH            N/A     -3 -10  72 S14       30.23F WCI -22
MOBRIDGE       CLEAR     -2  -8  76 S8        30.31F WCI -17
$$

SDZ012>016-024>037-041>051-057-063-072>074-050900-
SOUTHWEST AND SOUTH CENTRAL SOUTH DAKOTA

CITY           SKY/WX    TMP DP  RH WIND       PRES   REMARKS
RAPID CTY ARPT CLEAR      6   0  76 S7        30.20F WCI  -6
PIERRE         PTCLDY    -4  -9  79 SE9       30.37F WCI -20
CUSTER         PTCLDY     2  -5  72 S3        30.04S
ELLSWORTH AFB  PTCLDY     8   1  74 S6        30.17F WCI  -2
PHILIP         MOCLDY    -5 -10  79 NW5       30.32S WCI -16
PINE RIDGE     CLEAR     -8 -13  78 CALM      30.24F
SPEARFISH      FAIR      14   0  52 W9        30.12S WCI   2
WINNER         FAIR       4  -7  60 S6        30.36F WCI  -7
$$

SDZ004>011-016>023-039-040-050900-
NORTHEAST SOUTH DAKOTA

CITY           SKY/WX    TMP DP  RH WIND       PRES   REMARKS
ABERDEEN       PTCLDY   -15 -21  74 SW6       30.43S WCI -29
WATERTOWN      PTCLDY   -12 -18  74 S3        30.38S
SISSETON         N/A     -7 -14  71 W6        30.43F WCI -20
$$

SDZ017-020-022-023-036>040-048>070-050900-
SOUTHEAST SOUTH DAKOTA

CITY           SKY/WX    TMP DP  RH WIND       PRES   REMARKS
SIOUX FALLS    CLEAR     -7 -12  79 W3        30.44S
HURON          PTCLDY    -9 -14  78 S5        30.45F WCI -20
CHAMBERLAIN    PTCLDY    -6 -11  80 E6        30.41S WCI -19
MITCHELL         N/A     -6 -10  83 CALM      30.47F
YANKTON        CLEAR     -2  -8  78 NW6       30.48R WCI -14
$$

ABBREVIATIONS USED IN REMARKS
   TC - TEMPERATURE IN CELSIUS
  WCI - WIND CHILL INDEX
   HX - HEAT INDEX
  VSB - VISIBILITY




USA.gov is the U.S. government's official web portal to all federal, state and local government web resources and services.